Location: Marlborough
(51.4223°N, 1.7415°W)
Time: 06:37:59
(UTC+01:00)

Envisat - Pass Details

Date: 26 May 2024
Orbit: 762 x 764 km, 98.3° (Epoch: 13 June)

Event Time Altitude Azimuth Distance (km) Brightness Sun altitude
Rises 03:57:14 0° 19° (NNE) 3,240 7.8 -8.1°
Reaches altitude 10° 03:59:41 10° 27° (NNE) 2,309 7.0 -7.8°
Maximum altitude 04:04:29 41° 97° (E) 1,104 4.2 -7.3°
Drops below altitude 10° 04:09:14 10° 167° (SSE) 2,292 5.1 -6.8°
Sets 04:11:39 0° 175° (S) 3,213 5.8 -6.6°
